Weather History for Meridian, MS

Change the Weather History Date:

Wednesday, March 6, 2013

  Actual Average Record
Temperature  
Mean Temperature 43 °F 53 °F  
Max Temperature 54 °F 66 °F 86 °F (1974)
Min Temperature 31 °F 41 °F 23 °F (1960)
Degree Days  
Heating Degree Days 22 12  
Month to date heating degree days 130 75  
Since 1 July heating degree days 2017 2172  
Cooling Degree Days 0 0  
Month to date cooling degree days 0 0  
Year to date cooling degree days 16 7  
Moisture  
Dew Point 27 °F    
Average Humidity 62    
Maximum Humidity 89    
Minimum Humidity 35    
Precipitation  
Precipitation 0.00 in 0.18 in 4.23 in (1996)
Month to date precipitation 0.01 1.11  
Year to date precipitation 18.84 11.84  
Sea Level Pressure  
Sea Level Pressure 30.27 in    
Wind  
Wind Speed 8 mph (NNW)    
Max Wind Speed 21 mph    
Max Gust Speed 28 mph    
Visibility 10 miles    
Events      
T = Trace of Precipitation, MM = Missing Value Source: NWS Daily Summary

Daily Weather History Graph

Daily Weather History Graph

Search for Another Location

Airport:

Trip Planner

Search our weather history database for the weather conditions in past years. The results will help you decide how hot, cold, wet, or windy it might be!

Date:

Astronomy

Mar. 06, 2013 Rise Set
Actual Time 6:16 AM CST 5:56 PM CST
Civil Twilight 5:51 AM CST 6:21 PM CST
Nautical Twilight 5:23 AM CST 6:49 PM CST
Astronomical Twilight 4:54 AM CST 7:18 PM CST
Moon 2:11 AM CST (3/6) 12:52 PM CST (3/6)
Length of Visible Light 12h 29m
Length of Day
11h 40m
Waning Crescent, 29% of the Moon is Illuminated
Mar 6
Waning Crescent
Mar 11
New
Mar 19
First Quarter
Mar 27
Full
Apr 2
Last Quarter

Hourly Weather History & Observations

Time (CST) Temp. Windchill Dew Point Humidity Pressure Visibility Wind Dir Wind Speed Gust Speed Precip Events Conditions
12:58 AM 39.0 °F 36.8 °F 28.9 °F 67% 30.18 in 10.0 mi WNW 3.5 mph - N/A   Clear
1:58 AM 37.9 °F 33.5 °F 27.0 °F 65% 30.19 in 10.0 mi WNW 5.8 mph - N/A   Clear
2:58 AM 36.0 °F - 27.0 °F 70% 30.19 in 10.0 mi Calm Calm - N/A   Clear
3:58 AM 34.0 °F - 28.0 °F 79% 30.21 in 10.0 mi Calm Calm - N/A   Clear
4:58 AM 33.1 °F 30.0 °F 26.1 °F 75% 30.24 in 10.0 mi WNW 3.5 mph - N/A   Clear
5:58 AM 33.1 °F 28.7 °F 26.1 °F 75% 30.26 in 10.0 mi WNW 4.6 mph - N/A   Clear
6:58 AM 34.0 °F 31.0 °F 27.0 °F 75% 30.28 in 10.0 mi WNW 3.5 mph - N/A   Clear
7:58 AM 37.9 °F 28.9 °F 26.1 °F 62% 30.30 in 10.0 mi NNW 16.1 mph 25.3 mph N/A   Clear
8:58 AM 41.0 °F 32.5 °F 25.0 °F 53% 30.32 in 10.0 mi NNW 17.3 mph 23.0 mph N/A   Clear
9:58 AM 44.1 °F 37.4 °F 25.0 °F 47% 30.31 in 10.0 mi North 13.8 mph 21.9 mph N/A   Clear
10:58 AM 46.0 °F 39.3 °F 25.0 °F 44% 30.31 in 10.0 mi North 16.1 mph 21.9 mph N/A   Clear
11:58 AM 48.9 °F - 25.0 °F 39% 30.29 in 10.0 mi NNE 15.0 mph 19.6 mph N/A   Clear
12:58 PM 50.0 °F - 25.0 °F 38% 30.27 in 10.0 mi North 12.7 mph 19.6 mph N/A   Clear
1:58 PM 52.0 °F - 25.0 °F 35% 30.25 in 10.0 mi North 10.4 mph - N/A   Clear
2:58 PM 54.0 °F - 26.1 °F 34% 30.25 in 10.0 mi North 11.5 mph - N/A   Clear
3:58 PM 53.1 °F - 27.0 °F 37% 30.23 in 10.0 mi North 11.5 mph - N/A   Clear
4:58 PM 51.1 °F - 27.0 °F 39% 30.24 in 10.0 mi North 10.4 mph - N/A   Clear
5:58 PM 46.9 °F - 28.0 °F 48% 30.26 in 10.0 mi North 8.1 mph - N/A   Clear
6:58 PM 45.0 °F 40.1 °F 28.9 °F 53% 30.27 in 10.0 mi NNE 9.2 mph - N/A   Clear
7:58 PM 39.9 °F 36.7 °F 32.0 °F 73% 30.28 in 10.0 mi North 4.6 mph - N/A   Clear
8:58 PM 36.0 °F 32.1 °F 32.0 °F 86% 30.30 in 10.0 mi NNW 4.6 mph - N/A   Clear
9:58 PM 35.1 °F 32.2 °F 32.0 °F 89% 30.30 in 10.0 mi NNW 3.5 mph - N/A   Clear
10:58 PM 34.0 °F - 30.0 °F 85% 30.30 in 10.0 mi Calm Calm - N/A   Clear
11:58 PM 32.0 °F - 30.0 °F 92% 30.30 in 10.0 mi Calm Calm - N/A   Clear